Location: Huesca
(42.1318°N, 0.4078°W)
Time: 23:49:04
(UTC+02:00)

ACS3 Solar Sail - Pass Details

Date: 22 June 2024
Orbit: 992 x 1023 km, 97.4° (Epoch: 12 July)

Event Time Altitude Azimuth Distance (km) Brightness Sun altitude
Exits shadow 00:26:12 17° 210° (SSW) 2,277 6.4 -20.7°
Maximum altitude 00:30:17 35° 266° (W) 1,557 6.0 -21.0°
Drops below altitude 10° 00:35:55 10° 331° (NNW) 2,767 8.3 -21.4°
Sets 00:38:39 0° 340° (NNW) 3,719 9.4 -21.6°
